Location: Altmatt
(47.1333°N, 8.7000°E)
Time: 17:53:54
(UTC+00:00)

Cosmos 1340 - Pass Details

Date: 13 July 2020
Orbit: 502 x 505 km, 81.2° (Epoch: 12 August)

Event Time Altitude Azimuth Distance (km) Brightness Sun altitude
Exits shadow 22:37:55 30° 242° (WSW) 936 3.8 -20.2°
Maximum altitude 22:39:11 39° 286° (WNW) 763 3.7 -20.2°
Drops below altitude 10° 22:42:45 10° 357° (N) 1,725 6.5 -20.4°
Sets 22:44:59 0° 5° (N) 2,615 7.6 -20.4°
